| time (UTC) | temp C | wind direction | speed KPH | gust KPH | rain 1hr cm | rain 24hr cm | rain mn cm | humidity % | barometer mb |
| 20260902014648 | 19 | 273 | 0.0 | 4.8 | 0.00 | 0.00 | 0.00 | 83 | 1022.0 |
| 20260902014146 | 19 | 275 | 0.0 | 3.2 | 0.00 | 0.00 | 0.00 | 82 | 1021.9 |
| 20260902013645 | 19 | 278 | 0.0 | 4.8 | 0.00 | 0.00 | 0.00 | 82 | 1022.0 |
| 20260902013142 | 19 | 274 | 0.0 | 4.8 | 0.00 | 0.00 | 0.00 | 81 | 1022.0 |
| 20260902012642 | 20 | 273 | 0.0 | 4.8 | 0.00 | 0.00 | 0.00 | 81 | 1022.1 |
| 20260902012144 | 20 | 265 | 0.0 | 1.6 | 0.00 | 0.00 | 0.00 | 81 | 1021.9 |
| 20260902011642 | 20 | 264 | 0.0 | 0.0 | 0.00 | 0.00 | 0.00 | 81 | 1021.9 |
| 20260902011145 | 20 | 264 | 0.0 | 3.2 | 0.00 | 0.00 | 0.00 | 81 | 1021.9 |
| 20260902010655 | 20 | 264 | 0.0 | 3.2 | 0.00 | 0.00 | 0.00 | 80 | 1022.0 |
| 20260902010153 | 20 | 271 | 0.0 | 1.6 | 0.00 | 0.00 | 0.00 | 80 | 1022.1 |
| 20260902005638 | 20 | 271 | 0.0 | 1.6 | 0.00 | 0.00 | 0.00 | 80 | 1022.0 |
| 20260902005138 | 20 | 271 | 0.0 | 0.0 | 0.00 | 0.00 | 0.00 | 80 | 1022.1 |
| 20260902004634 | 20 | 271 | 0.0 | 4.8 | 0.00 | 0.00 | 0.00 | 80 | 1022.0 |
| 20260902004133 | 20 | 271 | 0.0 | 4.8 | 0.00 | 0.00 | 0.00 | 80 | 1022.0 |
| 20260902003633 | 20 | 266 | 0.0 | 0.0 | 0.00 | 0.00 | 0.00 | 80 | 1022.0 |
| 20260902003130 | 20 | 266 | 0.0 | 0.0 | 0.00 | 0.00 | 0.00 | 79 | 1022.1 |
| 20260902002628 | 20 | 266 | 0.0 | 4.8 | 0.00 | 0.00 | 0.00 | 79 | 1022.0 |
| 20260902002128 | 20 | 266 | 0.0 | 4.8 | 0.00 | 0.00 | 0.00 | 79 | 1022.0 |
| 20260902001126 | 20 | 263 | 0.0 | 0.0 | 0.00 | 0.00 | 0.00 | 79 | 1022.1 |
| 20260902000625 | 20 | 264 | 0.0 | 1.6 | 0.00 | 0.00 | 0.00 | 78 | 1022.2 |
| 20260902000122 | 20 | 269 | 0.0 | 4.8 | 0.00 | 0.00 | 0.00 | 78 | 1022.2 |
| 20260901235621 | 20 | 271 | 0.0 | 4.8 | 0.00 | 0.00 | 0.00 | 78 | 1022.2 |
| 20260901235121 | 20 | 270 | 0.0 | 6.4 | 0.00 | 0.00 | 0.00 | 78 | 1022.3 |
| 20260901234619 | 20 | 262 | 0.0 | 6.4 | 0.00 | 0.00 | 0.00 | 78 | 1022.2 |
| 20260901234119 | 21 | 274 | 0.0 | 1.6 | 0.00 | 0.00 | 0.00 | 78 | 1022.2 |
| 20260901233618 | 21 | 272 | 0.0 | 0.0 | 0.00 | 0.00 | 0.00 | 78 | 1022.2 |
| 20260901233118 | 21 | 273 | 0.0 | 1.6 | 0.00 | 0.00 | 0.00 | 78 | 1022.2 |
| 20260901232617 | 21 | 272 | 0.0 | 3.2 | 0.00 | 0.00 | 0.00 | 77 | 1022.2 |
| 20260901232117 | 21 | 272 | 0.0 | 3.2 | 0.00 | 0.00 | 0.00 | 77 | 1022.3 |
| 20260901231115 | 21 | 271 | 0.0 | 0.0 | 0.00 | 0.00 | 0.00 | 76 | 1022.4 |
| 20260901230615 | 21 | 272 | 0.0 | 8.0 | 0.00 | 0.00 | 0.00 | 75 | 1022.3 |
| 20260901230130 | 21 | 272 | 0.0 | 8.0 | 0.00 | 0.00 | 0.00 | 75 | 1022.3 |
| 20260901225613 | 21 | 274 | 0.0 | 1.6 | 0.00 | 0.00 | 0.00 | 74 | 1022.4 |
| 20260901225112 | 21 | 278 | 0.0 | 4.8 | 0.00 | 0.00 | 0.00 | 74 | 1022.5 |
| 20260901224610 | 22 | 268 | 0.0 | 4.8 | 0.00 | 0.00 | 0.00 | 74 | 1022.5 |
| 20260901223607 | 22 | 282 | 0.0 | 8.0 | 0.00 | 0.00 | 0.00 | 73 | 1022.3 |
| 20260901223101 | 22 | 271 | 0.0 | 3.2 | 0.00 | 0.00 | 0.00 | 74 | 1022.4 |
| 20260901222556 | 22 | 274 | 0.0 | 3.2 | 0.00 | 0.00 | 0.00 | 74 | 1022.3 |
| 20260901222052 | 22 | 274 | 0.0 | 6.4 | 0.00 | 0.00 | 0.00 | 73 | 1022.3 |
| 20260901221542 | 22 | 274 | 0.0 | 6.4 | 0.00 | 0.00 | 0.00 | 73 | 1022.4 |
| 20260901220531 | 22 | 272 | 0.0 | 4.8 | 0.00 | 0.00 | 0.00 | 72 | 1022.4 |
| 20260901215013 | 22 | 271 | 0.0 | 3.2 | 0.00 | 0.00 | 0.00 | 72 | 1022.2 |
| 20260901213455 | 22 | 274 | 0.0 | 3.2 | 0.00 | 0.00 | 0.00 | 70 | 1022.0 |
| 20260901212949 | 22 | 275 | 0.0 | 0.0 | 0.00 | 0.00 | 0.00 | 70 | 1022.0 |
| 20260901212445 | 22 | 276 | 0.0 | 0.0 | 0.00 | 0.00 | 0.00 | 70 | 1022.0 |
| 20260901211937 | 22 | 275 | 0.0 | 6.4 | 0.00 | 0.00 | 0.00 | 69 | 1021.9 |
| 20260901211433 | 22 | 278 | 0.0 | 6.4 | 0.00 | 0.00 | 0.00 | 68 | 1021.9 |
| 20260901210928 | 22 | 275 | 0.0 | 4.8 | 0.00 | 0.00 | 0.00 | 67 | 1021.9 |
| 20260901210427 | 22 | 268 | 0.0 | 0.0 | 0.00 | 0.00 | 0.00 | 67 | 1021.8 |
| 20260901205930 | 22 | 268 | 0.0 | 0.0 | 0.00 | 0.00 | 0.00 | 67 | 1021.8 |
| 20260901205428 | 22 | 268 | 0.0 | 0.0 | 0.00 | 0.00 | 0.00 | 67 | 1021.7 |
| 20260901204929 | 22 | 268 | 0.0 | 0.0 | 0.00 | 0.00 | 0.00 | 67 | 1021.7 |
| 20260901204427 | 22 | 268 | 0.0 | 3.2 | 0.00 | 0.00 | 0.00 | 66 | 1021.7 |
| 20260901203425 | 22 | 266 | 0.0 | 4.8 | 0.00 | 0.00 | 0.00 | 65 | 1021.7 |
| 20260901202927 | 22 | 272 | 0.0 | 4.8 | 0.00 | 0.00 | 0.00 | 64 | 1021.7 |
| 20260901202426 | 23 | 276 | 0.0 | 3.2 | 0.00 | 0.00 | 0.00 | 63 | 1021.6 |
| 20260901201927 | 23 | 269 | 0.0 | 1.6 | 0.00 | 0.00 | 0.00 | 62 | 1021.7 |
| 20260901201426 | 23 | 269 | 0.0 | 1.6 | 0.00 | 0.00 | 0.00 | 62 | 1021.7 |
| 20260901200928 | 23 | 269 | 0.0 | 1.6 | 0.00 | 0.00 | 0.00 | 62 | 1021.6 |
| 20260901200427 | 23 | 268 | 0.0 | 1.6 | 0.00 | 0.00 | 0.00 | 62 | 1021.6 |
| 20260901195426 | 23 | 275 | 0.0 | 6.4 | 0.00 | 0.00 | 0.00 | 60 | 1021.5 |
| 20260901194928 | 24 | 268 | 0.0 | 1.6 | 0.00 | 0.00 | 0.00 | 59 | 1021.5 |
| 20260901194420 | 24 | 267 | 0.0 | 1.6 | 0.00 | 0.00 | 0.00 | 58 | 1021.5 |
| 20260901193913 | 25 | 268 | 0.0 | 0.0 | 0.00 | 0.00 | 0.00 | 57 | 1021.5 |
| 20260901193407 | 25 | 267 | 0.0 | 0.0 | 0.00 | 0.00 | 0.00 | 56 | 1021.4 |
| 20260901192903 | 25 | 267 | 0.0 | 0.0 | 0.00 | 0.00 | 0.00 | 55 | 1021.3 |
| 20260901192352 | 25 | 267 | 0.0 | 1.6 | 0.00 | 0.00 | 0.00 | 54 | 1021.3 |
| 20260901191848 | 25 | 267 | 0.0 | 1.6 | 0.00 | 0.00 | 0.00 | 53 | 1021.2 |
| 20260901191341 | 25 | 269 | 0.0 | 0.0 | 0.00 | 0.00 | 0.00 | 52 | 1021.3 |
| 20260901190838 | 25 | 271 | 0.0 | 0.0 | 0.00 | 0.00 | 0.00 | 52 | 1021.2 |
| 20260901190330 | 26 | 274 | 0.0 | 0.0 | 0.00 | 0.00 | 0.00 | 51 | 1021.1 |
| 20260901185320 | 26 | 276 | 0.0 | 0.0 | 0.00 | 0.00 | 0.00 | 49 | 1021.0 |
| 20260901184814 | 26 | 277 | 0.0 | 0.0 | 0.00 | 0.00 | 0.00 | 48 | 1021.0 |
| 20260901184306 | 27 | 278 | 0.0 | 0.0 | 0.00 | 0.00 | 0.00 | 48 | 1021.0 |
| 20260901183800 | 27 | 278 | 0.0 | 0.0 | 0.00 | 0.00 | 0.00 | 48 | 1020.9 |
| 20260901183254 | 27 | 278 | 0.0 | 0.0 | 0.00 | 0.00 | 0.00 | 47 | 1020.9 |
| 20260901182747 | 27 | 278 | 0.0 | 0.0 | 0.00 | 0.00 | 0.00 | 46 | 1020.8 |
| 20260901182241 | 28 | 280 | 0.0 | 0.0 | 0.00 | 0.00 | 0.00 | 45 | 1020.7 |
| 20260901181736 | 28 | 280 | 0.0 | 0.0 | 0.00 | 0.00 | 0.00 | 45 | 1020.7 |
| 20260901181230 | 28 | 280 | 0.0 | 0.0 | 0.00 | 0.00 | 0.00 | 44 | 1020.6 |
| 20260901180725 | 28 | 280 | 0.0 | 0.0 | 0.00 | 0.00 | 0.00 | 44 | 1020.6 |
| 20260901180217 | 29 | 280 | 0.0 | 0.0 | 0.00 | 0.00 | 0.00 | 44 | 1020.4 |
| 20260901175713 | 29 | 280 | 0.0 | 0.0 | 0.00 | 0.00 | 0.00 | 43 | 1020.4 |
| 20260901175205 | 30 | 280 | 0.0 | 0.0 | 0.00 | 0.00 | 0.00 | 42 | 1020.3 |
| 20260901174701 | 30 | 279 | 0.0 | 0.0 | 0.00 | 0.00 | 0.00 | 41 | 1020.3 |
| 20260901174159 | 30 | 279 | 0.0 | 0.0 | 0.00 | 0.00 | 0.00 | 39 | 1020.2 |
| 20260901173659 | 31 | 279 | 0.0 | 0.0 | 0.00 | 0.00 | 0.00 | 38 | 1020.2 |
| 20260901173157 | 31 | 279 | 0.0 | 1.6 | 0.00 | 0.00 | 0.00 | 38 | 1020.2 |
| 20260901172155 | 31 | 278 | 0.0 | 3.2 | 0.00 | 0.00 | 0.00 | 37 | 1020.2 |
| 20260901171656 | 32 | 273 | 0.0 | 4.8 | 0.00 | 0.00 | 0.00 | 37 | 1020.0 |
| 20260901171154 | 32 | 295 | 0.0 | 4.8 | 0.00 | 0.00 | 0.00 | 38 | 1020.0 |
| 20260901170152 | 32 | 272 | 0.0 | 3.2 | 0.00 | 0.00 | 0.00 | 37 | 1019.9 |
| 20260901165653 | 32 | 280 | 0.0 | 6.4 | 0.00 | 0.00 | 0.00 | 37 | 1020.0 |
| 20260901165149 | 33 | 264 | 0.0 | 9.7 | 0.00 | 0.00 | 0.00 | 36 | 1020.0 |
| 20260901164647 | 33 | 281 | 1.6 | 9.7 | 0.00 | 0.00 | 0.00 | 37 | 1020.0 |
| 20260901163649 | 33 | 305 | 1.6 | 11.3 | 0.00 | 0.00 | 0.00 | 36 | 1020.0 |
| 20260901163147 | 33 | 268 | 0.0 | 8.0 | 0.00 | 0.00 | 0.00 | 36 | 1020.2 |
| 20260901162647 | 33 | 288 | 0.0 | 9.7 | 0.00 | 0.00 | 0.00 | 35 | 1020.0 |
| 20260901162149 | 33 | 269 | 1.6 | 12.9 | 0.00 | 0.00 | 0.00 | 35 | 1020.0 |
| 20260901161647 | 33 | 271 | 3.2 | 16.1 | 0.00 | 0.00 | 0.00 | 34 | 1020.0 |
| 20260901160641 | 33 | 281 | 3.2 | 16.1 | 0.00 | 0.00 | 0.00 | 34 | 1020.0 |
| 20260901155642 | 34 | 280 | 1.6 | 12.9 | 0.00 | 0.00 | 0.00 | 33 | 1020.0 |
| 20260901155141 | 34 | 284 | 1.6 | 12.9 | 0.00 | 0.00 | 0.00 | 31 | 1020.0 |
| 20260901153637 | 34 | 278 | 3.2 | 19.3 | 0.00 | 0.00 | 0.00 | 31 | 1019.9 |
| 20260901153137 | 34 | 341 | 3.2 | 19.3 | 0.00 | 0.00 | 0.00 | 31 | 1019.9 |
| 20260901152650 | 34 | 274 | 1.6 | 12.9 | 0.00 | 0.00 | 0.00 | 31 | 1019.9 |
| 20260901152137 | 34 | 335 | 1.6 | 8.0 | 0.00 | 0.00 | 0.00 | 32 | 1019.8 |
| 20260901151637 | 34 | 13 | 1.6 | 12.9 | 0.00 | 0.00 | 0.00 | 33 | 1019.8 |
| 20260901151137 | 34 | 281 | 1.6 | 12.9 | 0.00 | 0.00 | 0.00 | 33 | 1019.8 |
| 20260901150637 | 34 | 299 | 1.6 | 11.3 | 0.00 | 0.00 | 0.00 | 31 | 1019.8 |
| 20260901150138 | 34 | 274 | 1.6 | 14.5 | 0.00 | 0.00 | 0.00 | 32 | 1019.9 |
| 20260901145638 | 34 | 295 | 3.2 | 14.5 | 0.00 | 0.00 | 0.00 | 32 | 1019.8 |
| 20260901145137 | 34 | 0 | 3.2 | 14.5 | 0.00 | 0.00 | 0.00 | 33 | 1019.8 |
| 20260901144631 | 34 | 278 | 1.6 | 14.5 | 0.00 | 0.00 | 0.00 | 33 | 1019.8 |
| 20260901144132 | 34 | 263 | 1.6 | 14.5 | 0.00 | 0.00 | 0.00 | 33 | 1019.9 |
| 20260901143631 | 34 | 277 | 4.8 | 14.5 | 0.00 | 0.00 | 0.00 | 34 | 1019.8 |
| 20260901143130 | 34 | 293 | 3.2 | 14.5 | 0.00 | 0.00 | 0.00 | 34 | 1019.9 |
| 20260901142633 | 35 | 266 | 1.6 | 14.5 | 0.00 | 0.00 | 0.00 | 33 | 1020.0 |
| 20260901142145 | 34 | 231 | 3.2 | 16.1 | 0.00 | 0.00 | 0.00 | 33 | 1019.9 |
| 20260901141631 | 34 | 276 | 3.2 | 16.1 | 0.00 | 0.00 | 0.00 | 33 | 1020.0 |
| 20260901141131 | 34 | 316 | 1.6 | 14.5 | 0.00 | 0.00 | 0.00 | 33 | 1019.9 |
| 20260901140631 | 34 | 262 | 3.2 | 12.9 | 0.00 | 0.00 | 0.00 | 32 | 1020.0 |
| 20260901140132 | 34 | 276 | 3.2 | 14.5 | 0.00 | 0.00 | 0.00 | 32 | 1020.0 |
| 20260901135629 | 34 | 290 | 4.8 | 14.5 | 0.00 | 0.00 | 0.00 | 32 | 1019.9 |
| 20260901135127 | 34 | 302 | 4.8 | 16.1 | 0.00 | 0.00 | 0.00 | 33 | 1020.0 |
| 20260901134629 | 34 | 267 | 4.8 | 16.1 | 0.00 | 0.00 | 0.00 | 33 | 1019.9 |
| 20260901134127 | 35 | 248 | 3.2 | 17.7 | 0.00 | 0.00 | 0.00 | 33 | 1020.0 |
| 20260901133629 | 35 | 217 | 3.2 | 17.7 | 0.00 | 0.00 | 0.00 | 32 | 1020.0 |
| 20260901133127 | 35 | 283 | 3.2 | 14.5 | 0.00 | 0.00 | 0.00 | 33 | 1020.0 |
| 20260901132627 | 35 | 290 | 1.6 | 14.5 | 0.00 | 0.00 | 0.00 | 34 | 1020.0 |
| 20260901131630 | 35 | 255 | 0.0 | 4.8 | 0.00 | 0.00 | 0.00 | 36 | 1020.3 |
| 20260901131125 | 34 | 341 | 1.6 | 11.3 | 0.00 | 0.00 | 0.00 | 36 | 1020.3 |
| 20260901130625 | 34 | 267 | 1.6 | 11.3 | 0.00 | 0.00 | 0.00 | 35 | 1020.3 |
| 20260901130125 | 34 | 176 | 1.6 | 9.7 | 0.00 | 0.00 | 0.00 | 35 | 1020.4 |
| 20260901125124 | 33 | 274 | 4.8 | 17.7 | 0.00 | 0.00 | 0.00 | 37 | 1020.5 |
| 20260901124624 | 33 | 279 | 3.2 | 17.7 | 0.00 | 0.00 | 0.00 | 36 | 1020.5 |
| 20260901124125 | 33 | 283 | 0.0 | 6.4 | 0.00 | 0.00 | 0.00 | 39 | 1020.6 |
| 20260901123624 | 33 | 269 | 0.0 | 9.7 | 0.00 | 0.00 | 0.00 | 42 | 1020.6 |
| 20260901123124 | 33 | 84 | 1.6 | 11.3 | 0.00 | 0.00 | 0.00 | 41 | 1020.6 |
| 20260901122620 | 33 | 295 | 1.6 | 12.9 | 0.00 | 0.00 | 0.00 | 40 | 1020.6 |
| 20260901122121 | 33 | 230 | 1.6 | 12.9 | 0.00 | 0.00 | 0.00 | 40 | 1020.7 |
| 20260901121119 | 33 | 335 | 0.0 | 9.7 | 0.00 | 0.00 | 0.00 | 42 | 1020.8 |
| 20260901120619 | 33 | 308 | 0.0 | 8.0 | 0.00 | 0.00 | 0.00 | 44 | 1020.7 |
| 20260901120122 | 33 | 334 | 1.6 | 9.7 | 0.00 | 0.00 | 0.00 | 43 | 1020.8 |
| 20260901115615 | 33 | 243 | 1.6 | 9.7 | 0.00 | 0.00 | 0.00 | 44 | 1020.8 |
| 20260901115116 | 33 | 248 | 0.0 | 6.4 | 0.00 | 0.00 | 0.00 | 45 | 1020.7 |
| 20260901114614 | 33 | 284 | 0.0 | 6.4 | 0.00 | 0.00 | 0.00 | 44 | 1020.9 |
| 20260901114113 | 32 | 298 | 0.0 | 8.0 | 0.00 | 0.00 | 0.00 | 45 | 1020.9 |
| 20260901113113 | 32 | 285 | 0.0 | 8.0 | 0.00 | 0.00 | 0.00 | 46 | 1021.0 |
| 20260901112613 | 32 | 251 | 0.0 | 8.0 | 0.00 | 0.00 | 0.00 | 47 | 1021.0 |
| 20260901112115 | 32 | 280 | 0.0 | 8.0 | 0.00 | 0.00 | 0.00 | 47 | 1021.0 |
| 20260901111114 | 32 | 240 | 0.0 | 4.8 | 0.00 | 0.00 | 0.00 | 50 | 1021.1 |
| 20260901110612 | 32 | 218 | 0.0 | 4.8 | 0.00 | 0.00 | 0.00 | 50 | 1021.1 |
| 20260901110106 | 32 | 161 | 0.0 | 4.8 | 0.00 | 0.00 | 0.00 | 52 | 1021.2 |
| 20260901105558 | 32 | 268 | 0.0 | 8.0 | 0.00 | 0.00 | 0.00 | 52 | 1021.2 |
| 20260901105052 | 32 | 256 | 0.0 | 8.0 | 0.00 | 0.00 | 0.00 | 50 | 1021.2 |
| 20260901104546 | 31 | 295 | 0.0 | 8.0 | 0.00 | 0.00 | 0.00 | 48 | 1021.2 |
| 20260901103537 | 31 | 223 | 0.0 | 8.0 | 0.00 | 0.00 | 0.00 | 48 | 1021.3 |
| 20260901102535 | 31 | 349 | 0.0 | 6.4 | 0.00 | 0.00 | 0.00 | 48 | 1021.5 |
| 20260901102017 | 31 | 306 | 0.0 | 8.0 | 0.00 | 0.00 | 0.00 | 51 | 1021.5 |
| 20260901101510 | 31 | 266 | 0.0 | 8.0 | 0.00 | 0.00 | 0.00 | 52 | 1021.5 |
| 20260901101005 | 31 | 254 | 0.0 | 4.8 | 0.00 | 0.00 | 0.00 | 50 | 1021.6 |
| 20260901100500 | 30 | 322 | 0.0 | 4.8 | 0.00 | 0.00 | 0.00 | 52 | 1021.7 |
| 20260901095952 | 30 | 347 | 0.0 | 8.0 | 0.00 | 0.00 | 0.00 | 53 | 1021.6 |
| 20260901095446 | 30 | 309 | 1.6 | 8.0 | 0.00 | 0.00 | 0.00 | 54 | 1021.6 |
| 20260901094942 | 30 | 341 | 1.6 | 8.0 | 0.00 | 0.00 | 0.00 | 54 | 1021.6 |
| 20260901094437 | 30 | 342 | 0.0 | 8.0 | 0.00 | 0.00 | 0.00 | 58 | 1021.6 |
| 20260901093425 | 30 | 356 | 0.0 | 6.4 | 0.00 | 0.00 | 0.00 | 59 | 1021.6 |
| 20260901092924 | 30 | 328 | 0.0 | 4.8 | 0.00 | 0.00 | 0.00 | 60 | 1021.6 |
| 20260901091921 | 29 | 287 | 0.0 | 6.4 | 0.00 | 0.00 | 0.00 | 60 | 1021.6 |
| 20260901090918 | 29 | 12 | 1.6 | 8.0 | 0.00 | 0.00 | 0.00 | 61 | 1021.7 |
| 20260901090418 | 29 | 359 | 0.0 | 8.0 | 0.00 | 0.00 | 0.00 | 61 | 1021.7 |
| 20260901085920 | 30 | 144 | 0.0 | 0.0 | 0.00 | 0.00 | 0.00 | 63 | 1021.6 |
| 20260901085419 | 29 | 145 | 0.0 | 0.0 | 0.00 | 0.00 | 0.00 | 65 | 1021.6 |
| 20260901084916 | 28 | 145 | 1.6 | 4.8 | 0.00 | 0.00 | 0.00 | 66 | 1021.6 |
| 20260901083916 | 28 | 137 | 0.0 | 6.4 | 0.00 | 0.00 | 0.00 | 65 | 1021.6 |
| 20260901082914 | 28 | 146 | 0.0 | 1.6 | 0.00 | 0.00 | 0.00 | 65 | 1021.5 |
| 20260901082410 | 28 | 147 | 0.0 | 1.6 | 0.00 | 0.00 | 0.00 | 65 | 1021.6 |
| 20260901081408 | 28 | 144 | 0.0 | 6.4 | 0.00 | 0.00 | 0.00 | 66 | 1021.5 |
| 20260901080909 | 27 | 143 | 1.6 | 6.4 | 0.00 | 0.00 | 0.00 | 66 | 1021.4 |
| 20260901080409 | 27 | 153 | 0.0 | 6.4 | 0.00 | 0.00 | 0.00 | 66 | 1021.5 |
| 20260901075906 | 27 | 162 | 0.0 | 4.8 | 0.00 | 0.00 | 0.00 | 66 | 1021.4 |
| 20260901075401 | 27 | 214 | 0.0 | 1.6 | 0.00 | 0.00 | 0.00 | 68 | 1021.4 |
| 20260901074855 | 27 | 217 | 0.0 | 1.6 | 0.00 | 0.00 | 0.00 | 68 | 1021.4 |
| 20260901074407 | 26 | 217 | 0.0 | 1.6 | 0.00 | 0.00 | 0.00 | 69 | 1021.4 |
| 20260901073855 | 26 | 220 | 0.0 | 1.6 | 0.00 | 0.00 | 0.00 | 70 | 1021.5 |
| 20260901073354 | 26 | 220 | 0.0 | 1.6 | 0.00 | 0.00 | 0.00 | 71 | 1021.4 |
| 20260901072852 | 26 | 223 | 0.0 | 0.0 | 0.00 | 0.00 | 0.00 | 71 | 1021.4 |
| 20260901071848 | 25 | 224 | 0.0 | 0.0 | 0.00 | 0.00 | 0.00 | 73 | 1021.3 |
| 20260901071347 | 25 | 224 | 0.0 | 0.0 | 0.00 | 0.00 | 0.00 | 73 | 1021.3 |
| 20260901070845 | 24 | 229 | 0.0 | 0.0 | 0.00 | 0.00 | 0.00 | 75 | 1021.3 |
| 20260901065342 | 23 | 229 | 0.0 | 1.6 | 0.00 | 0.00 | 0.00 | 77 | 1021.2 |
| 20260901063836 | 22 | 277 | 0.0 | 0.0 | 0.00 | 0.00 | 0.00 | 82 | 1021.4 |
| 20260901062836 | 21 | 278 | 0.0 | 0.0 | 0.00 | 0.00 | 0.00 | 85 | 1021.4 |
| 20260901062334 | 21 | 278 | 0.0 | 0.0 | 0.00 | 0.00 | 0.00 | 85 | 1021.4 |
| 20260901061836 | 20 | 278 | 0.0 | 0.0 | 0.00 | 0.00 | 0.00 | 85 | 1021.4 |
| 20260901061333 | 20 | 278 | 0.0 | 0.0 | 0.00 | 0.00 | 0.00 | 86 | 1021.3 |
| 20260901060833 | 20 | 278 | 0.0 | 0.0 | 0.00 | 0.00 | 0.00 | 86 | 1021.4 |
| 20260901060332 | 20 | 278 | 0.0 | 0.0 | 0.00 | 0.00 | 0.00 | 87 | 1021.4 |
| 20260901055833 | 20 | 278 | 0.0 | 1.6 | 0.00 | 0.00 | 0.00 | 87 | 1021.3 |
| 20260901054328 | 19 | 279 | 0.0 | 0.0 | 0.00 | 0.00 | 0.00 | 88 | 1021.3 |
| 20260901053828 | 19 | 279 | 0.0 | 0.0 | 0.00 | 0.00 | 0.00 | 89 | 1021.3 |
| 20260901053331 | 18 | 269 | 0.0 | 3.2 | 0.00 | 0.00 | 0.00 | 89 | 1021.3 |
| 20260901052827 | 18 | 269 | 0.0 | 3.2 | 0.00 | 0.00 | 0.00 | 89 | 1021.2 |
| 20260901052330 | 18 | 266 | 0.0 | 1.6 | 0.00 | 0.00 | 0.00 | 89 | 1021.2 |
| 20260901051828 | 18 | 263 | 0.0 | 0.0 | 0.00 | 0.00 | 0.00 | 89 | 1021.2 |
| 20260901051330 | 18 | 263 | 0.0 | 1.6 | 0.00 | 0.00 | 0.00 | 89 | 1021.2 |
| 20260901050828 | 18 | 263 | 0.0 | 1.6 | 0.00 | 0.00 | 0.00 | 89 | 1021.2 |
| 20260901050328 | 17 | 276 | 0.0 | 0.0 | 0.00 | 0.00 | 0.00 | 89 | 1021.1 |
| 20260901045823 | 17 | 276 | 0.0 | 0.0 | 0.00 | 0.00 | 0.00 | 89 | 1021.1 |
| 20260901045324 | 17 | 278 | 0.0 | 4.8 | 0.00 | 0.00 | 0.00 | 89 | 1021.1 |
| 20260901044822 | 17 | 278 | 0.0 | 6.4 | 0.00 | 0.00 | 0.00 | 89 | 1021.1 |
| 20260901044321 | 17 | 274 | 0.0 | 6.4 | 0.00 | 0.00 | 0.00 | 89 | 1021.1 |
| 20260901043825 | 18 | 272 | 0.0 | 0.0 | 0.00 | 0.00 | 0.00 | 89 | 1021.0 |
| 20260901042822 | 18 | 272 | 0.0 | 0.0 | 0.00 | 0.00 | 0.00 | 88 | 1021.0 |
| 20260901041825 | 18 | 274 | 0.0 | 0.0 | 0.00 | 0.00 | 0.00 | 88 | 1021.2 |
| 20260901041320 | 18 | 274 | 0.0 | 0.0 | 0.00 | 0.00 | 0.00 | 88 | 1021.1 |
| 20260901040318 | 18 | 274 | 0.0 | 0.0 | 0.00 | 0.00 | 0.00 | 88 | 1021.1 |
| 20260901035818 | 18 | 274 | 0.0 | 0.0 | 0.00 | 0.00 | 0.00 | 88 | 1021.2 |
| 20260901035319 | 18 | 275 | 0.0 | 0.0 | 0.00 | 0.00 | 0.00 | 88 | 1021.1 |
| 20260901034319 | 18 | 274 | 0.0 | 0.0 | 0.00 | 0.00 | 0.00 | 88 | 1021.1 |
| 20260901033819 | 18 | 274 | 0.0 | 3.2 | 0.00 | 0.00 | 0.00 | 88 | 1021.1 |
| 20260901033320 | 18 | 275 | 0.0 | 3.2 | 0.00 | 0.00 | 0.00 | 88 | 1021.1 |
| 20260901032818 | 18 | 271 | 0.0 | 3.2 | 0.00 | 0.00 | 0.00 | 88 | 1021.1 |
| 20260901032318 | 18 | 270 | 0.0 | 6.4 | 0.00 | 0.00 | 0.00 | 88 | 1021.1 |
| 20260901031818 | 18 | 271 | 0.0 | 6.4 | 0.00 | 0.00 | 0.00 | 87 | 1021.1 |
| 20260901031319 | 18 | 270 | 0.0 | 0.0 | 0.00 | 0.00 | 0.00 | 87 | 1021.1 |
| 20260901030818 | 18 | 260 | 0.0 | 0.0 | 0.00 | 0.00 | 0.00 | 87 | 1021.0 |
| 20260901030331 | 18 | 259 | 0.0 | 0.0 | 0.00 | 0.00 | 0.00 | 87 | 1021.0 |
| 20260901025817 | 18 | 259 | 0.0 | 0.0 | 0.00 | 0.00 | 0.00 | 87 | 1021.0 |
| 20260901025317 | 18 | 259 | 0.0 | 0.0 | 0.00 | 0.00 | 0.00 | 87 | 1021.1 |
| 20260901024818 | 18 | 259 | 0.0 | 0.0 | 0.00 | 0.00 | 0.00 | 87 | 1021.1 |
| 20260901024311 | 18 | 265 | 0.0 | 4.8 | 0.00 | 0.00 | 0.00 | 86 | 1021.0 |
| 20260901023806 | 18 | 265 | 0.0 | 4.8 | 0.00 | 0.00 | 0.00 | 86 | 1021.1 |
| 20260901023259 | 18 | 275 | 0.0 | 4.8 | 0.00 | 0.00 | 0.00 | 85 | 1021.1 |
| 20260901022753 | 18 | 273 | 0.0 | 1.6 | 0.00 | 0.00 | 0.00 | 85 | 1021.0 |
| 20260901021742 | 18 | 270 | 0.0 | 0.0 | 0.00 | 0.00 | 0.00 | 85 | 1021.1 |
| 20260901021234 | 19 | 270 | 0.0 | 0.0 | 0.00 | 0.00 | 0.00 | 85 | 1021.0 |
| 20260901020729 | 19 | 270 | 0.0 | 0.0 | 0.00 | 0.00 | 0.00 | 85 | 1021.1 |
| 20260901020223 | 19 | 271 | 0.0 | 0.0 | 0.00 | 0.00 | 0.00 | 85 | 1021.0 |
| 20260901015721 | 19 | 271 | 0.0 | 0.0 | 0.00 | 0.00 | 0.00 | 85 | 1020.9 |
| 20260901015211 | 19 | 271 | 0.0 | 0.0 | 0.00 | 0.00 | 0.00 | 85 | 1020.9 |